Regional Weather Roundup
Issued by NWS Charleston, SC

Current Version | Previous Version | Graphics & Text | Print | Product List | Glossary On
Versions: 1 2 3 4 5 6 7 8 9 10 11 12 13 14 15 16 17 18 19 20 21 22 23 24 25 26 27 28 29 30 31 32 33 34 35 36 37 38 39 40 41 42 43 44 45 46 47 48 49 50
000
ASUS42 KCHS 260325
RWRCHS

REGIONAL WEATHER ROUNDUP
NATIONAL WEATHER SERVICE CHARLESTON SC
1100 PM EDT FRI JUL 25 2014

NOTE: "FAIR" INDICATES FEW OR NO CLOUDS BELOW 12,000 FEET WITH NO
SIGNIFICANT WEATHER AND/OR OBSTRUCTIONS TO VISIBILITY.

NOT ALL STATIONS ARE QUALITY CONTROLLED BY THE NATIONAL
WEATHER SERVICE. USE DATA WITH CAUTION...ESPECIALLY
DEWPOINT OBSERVATIONS.

SCZ027-030-031-034>040-042>050-260400-
...SOUTH CAROLINA...

CITY           SKY/WX    TMP DP  RH WIND       PRES   REMARKS
N CHARLESTON   CLOUDY    76  72  87 SW5       30.03F
WATERFRONT PRK   N/A     77 N/A N/A CALM        N/A
FORT JOHNSON   NOT AVBL
MOUNT PLEASANT DRIZZLE   73  73 100 CALM      30.03S
JOHNS ISLAND   CLEAR     75  72  88 CALM      30.03F FOG
PINOPOLIS        N/A     79  72  78 MISG      29.97R
MONCKS CORNER    N/A     73  73 100 W3        30.04R
SUMMERVILLE    MOCLDY    73  73 100 SW5       30.05R
BEAUFORT MCAS  CLOUDY    73  68  84 NW16G29   30.05R THUNDER
BEAUFORT ARPT  CLOUDY    73  70  88 W10G22    30.04R
HILTON HEAD IS CLOUDY    73  73 100 NW7       30.07R
GEORGETOWN     NOT AVBL
WALTERBORO     LGT RAIN  73 N/A N/A SE3       30.05F
ORANGEBURG     MOCLDY    74  72  93 SE6       30.04R
BARNWELL       FAIR      75  73  94 E3        30.02F
AIKEN          FAIR      73  73 100 CALM      30.05S
MANNING        FAIR      75 N/A N/A S3        30.04S
KINGSTREE      NOT AVBL
COLUMBIA       PTCLDY    78  71  79 S3        30.01S
SUMTER         PTCLDY    76  75  96 SE5       30.01S
FLORENCE       PTCLDY    75  72  90 CALM      30.04R
MYRTLE BEACH   MOCLDY    75  72  88 CALM      30.04R
N MYRTLE BEACH PTCLDY    77  73  87 SW5       30.03F

$$

GAZ063-065-086>088-099>101-113>116-118-119-134-136>141-150-260400-
...GEORGIA...

CITY           SKY/WX    TMP DP  RH WIND       PRES   REMARKS
SAVANNAH ARPT  CLOUDY    77  72  83 N14G20    30.06R THUNDER
HUNTER AAF     CLOUDY    80  74  82 NE7       30.03R
FORT STEWART   CLOUDY    82  71  70 SW5       30.03R
STATESBORO     NOT AVBL
SYLVANIA       CLOUDY    74  74 100 SE7       30.05S
CLAXTON        MOCLDY    82  75  78 CALM      30.03R
THOMSON        PTCLDY    77  77 100 CALM      30.06R
AUGUSTA-BUSH   MOCLDY    72  70  93 S5        29.99F
AUGUSTA-DANIEL MOCLDY    75  69  81 CALM      30.01F
SWAINSBORO     MOCLDY    81  77  89 SE5       30.05R
VIDALIA          N/A     82  73  74 SW5       30.03R
ALMA           CLEAR     79  73  82 CALM      30.03R
WAYCROSS       CLEAR     82  77  85 SW5       30.04R
JESUP          NOT AVBL
BRUNSWICK      MOCLDY    82  72  69 SW13      30.04F
SAINT SIMONS   MOCLDY    82  73  74 SW8       30.05R

$$

SCZ027-028-034-036>038-045-046-048>050-GAZ119-141-260400-
...LAKE AND SUPPLEMENTAL COASTAL OBSERVATIONS...

STATION/POSITION TIME  TEMP    WIND        PRES    WAVE   SWELL
                       AIR SEA DIR/SP/G            HT/PER HT/PER/DIR
                 (UTC) (F)     (DEG/KT/KT) (MB)    (FT/S) (FT/S/D)
UPR LAKE MARION  NOT AVBL
WINYAH BAY       0300   74     340/  2     1017.0S
LAKE MURRAY      0200   79     170/  8/ 10 1015.9R
ACE BASIN NERRS  0300   74     280/  2     1017.0S
FORT PULASKI     0300   77                 1018.0R
SAPELO ISLAND    0300   83     220/ 11     1017.0F

$$

ANZ835-935-AMZ111-154-330-350-352-354-374-450-454-472-260400-
...C-MAN AND BUOY OBSERVATIONS...

STATION/POSITION TIME  TEMP    WIND        PRES    WAVE   SWELL
                       AIR SEA DIR/SP/G            HT/PER HT/PER/DIR
                 (UTC) (F)     (DEG/KT/KT) (MB)    (FT/S) (FT/S/D)
FOLLY BEACH CMAN 0300   76     340/  2/  2 1017.4R
BUOY 41004       0300   83 83  250/ 12/ 14 1016.4R   3/ 5   2/ 8
BUOY 41008       0300   83 85  210/ 17/ 19 1016.6R   4/ 5
5E ST. MARYS GA  0300      84                N/A     3/ 4
FRYING PAN BUOY  NOT AVBL
BUOY 41025       0300          VRB 10/ 14  1017.7R   3/ 6   2/140/ 6
CAPE LOOKOUT NC  0300   79      80/  9/ 10 1017.1S
BUOY 41002       0152   81 82  230/ 10/ 12 1018.9R   4/ 7   3/230/ 7
BUOY 41010       0300   83 84  170/ 12/ 14 1018.5F   2/ 8   2/130/ 8
BUOY 41012       NOT AVBL
ST AUGUSTINE FL  0300   75     220/  7/  9 1018.9R
CAPERS NEARSHORE 0200   78     310/ 14/ 16   N/A
FRIPP NEARSHORE  NOT AVBL


$$


USA.gov is the U.S. government's official web portal to all federal, state and local government web resources and services.